Home   Weather   Sharjah   Past weeks

Flag for United Arab Emirates Past Weather in Sharjah, Sharjah, United Arab Emirates — Yesterday and Last 2 Weeks

Now
70 °F

Passing clouds.


Feels Like: 70 °F
Forecast: 68 / 74 °F
Wind: 10 mph from West

Location: Sharjah International Airport

Current Time: Dec 11, 2016 at 2:47:08 am

Latest Report: Dec 11, 2016 at 2:00 am


Visibility: N/A

Pressure: 29.98 "Hg

Humidity: 50%

Dew Point: 50 °F

Location of SharjahLocation

Past Weather in Sharjah — Graph

°F

Sharjah Temperature Yesterday

Maximum temperature yesterday: 77 °F (at 10:00 am)
Minimum temperature yesterday: 72 °F (at 6:00 pm)
Average temperature yesterday: 74 °F

High & Low Weather Summary for the Past Weeks

 TemperatureHumidityPressure
High90 °F (Dec 5, 1:00 pm)100% (Dec 3, 3:00 am)30.15 "Hg (Dec 3, 3:00 am)
Low61 °F (Nov 27, 7:00 am)29% (Nov 27, 1:00 pm)29.95 "Hg (Dec 6, 2:00 pm)
Average74 °F67%30.04 "Hg
* Reported Nov 26 1:00 am — Dec 11 1:00 am, Sharjah, Weather by CustomWeather, © 2016

Note: Actual official high and low records may vary slightly from our data, if they occured in-between our weather recording intervals... More about our weather records

Advertising

Sharjah Weather History for the Previous 24 Hours

Scroll right to see more
 ConditionsComfort  
Time TempWeatherWind HumidityBarometerVisibility
1:00 am
Sun, Dec 11
72 °FPassing clouds.10 mph47%29.98 "HgN/A
12:00 am72 °FPassing clouds.13 mph47%30.01 "HgN/A
11:00 pm
Sat, Dec 10
72 °FPassing clouds.10 mph47%30.01 "HgN/A
10:00 pm72 °FPassing clouds.12 mph50%30.01 "HgN/A
9:00 pm72 °FPassing clouds.12 mph50%30.01 "HgN/A
8:00 pm72 °FPassing clouds.12 mph50%30.01 "HgN/A
7:00 pm72 °FPassing clouds.17 mph50%30.01 "HgN/A
6:00 pm72 °FPassing clouds.14 mph47%29.98 "HgN/A
5:00 pm73 °FPassing clouds.16 mph41%29.98 "Hg5 mi
4:00 pm73 °FPassing clouds.22 mph44%29.98 "Hg4 mi
3:00 pm75 °FPassing clouds.23 mph41%29.98 "Hg5 mi
2:00 pm75 °FPassing clouds.23 mph39%29.98 "Hg4 mi
1:00 pm75 °FClear.24 mph41%29.98 "Hg4 mi
12:00 pm75 °FClear.25 mph41%30.04 "Hg4 mi
11:00 am75 °FSunny.20 mph39%30.04 "Hg10 mi
10:00 am77 °FSunny.21 mph36%30.04 "Hg10 mi
9:00 am75 °FSunny.20 mph41%30.01 "Hg10 mi
8:00 am75 °FSunny.14 mph41%30.01 "Hg10 mi
7:00 am73 °FPassing clouds.14 mph53%29.98 "HgN/A
6:00 am73 °FPassing clouds.14 mph53%29.98 "HgN/A
5:00 am73 °FPassing clouds.14 mph57%29.95 "HgN/A
4:00 am75 °FPassing clouds.13 mph54%29.95 "HgN/A
3:00 am75 °FPassing clouds.10 mph54%29.95 "HgN/A
2:00 am75 °FPassing clouds.14 mph57%29.95 "HgN/A
Weather by CustomWeather, © 2016

See weather overviewHow to use our weather pages